Location: Strada George Coșbuc
(47.6577°N, 23.5639°E)
Time: 01:21:12
(UTC+03:00)

ISS - Pass Details

Date: 08 September 2017
Orbit: 401 x 407 km, 51.6° (Epoch: 23 September)

Event Time Altitude Azimuth Distance (km) Brightness Sun altitude
Exits shadow 05:59:20 13° 268° (W) 1,286 -1.9 -9.7°
Maximum altitude 06:02:06 53° 345° (NNW) 509 -3.3 -9.2°
Drops below altitude 10° 06:05:21 10° 64° (ENE) 1,475 0.7 -8.7°
Sets 06:07:29 0° 69° (ENE) 2,337 2.6 -8.4°
